Location: Balsareny
(41.8670°N, 1.8830°E)
Time: 23:17:27
(UTC+02:00)

X-37B - Pass Details

Date: 26 June 2021
Orbit: 383 x 392 km, 45.0° (Epoch: 01 July)

Event Time Altitude Azimuth Distance (km) Brightness Sun altitude
Rises 22:45:57 0° 260° (W) 2,252 4.9 -11.5°
Reaches altitude 10° 22:48:01 10° 263° (W) 1,399 3.9 -11.7°
Maximum altitude 22:51:09 63° 346° (NNW) 429 1.0 -12.1°
Drops below altitude 10° 22:54:17 10° 69° (ENE) 1,402 3.2 -12.5°
Enters shadow 22:55:54 - 72° (ENE) 2,063 4.0 -12.7°
